Location: Codford Saint Peter
(51.1597°N, 2.0531°W)
Time: 05:09:08
(UTC+00:00)

Envisat - Pass Details

Date: 30 January 2022
Orbit: 764 x 765 km, 98.2° (Epoch: 22 May)

Event Time Altitude Azimuth Distance (km) Brightness Sun altitude
Rises 05:06:37 0° 15° (NNE) 3,244 6.5 -25.3°
Reaches altitude 10° 05:08:57 10° 17° (NNE) 2,313 5.7 -25.0°
Maximum altitude 05:14:03 78° 103° (ESE) 789 3.0 -24.2°
Drops below altitude 10° 05:19:07 10° 191° (S) 2,298 5.3 -23.4°
Sets 05:21:25 0° 192° (SSW) 3,220 6.1 -23.0°
